"2010-12-18 00:00:00",432301,3.727,332.1,6.587,1.198,-1.993,97.73911,-6.458,-5.312,72.01,0,109.1,13.74,-5.73,294.1
"2010-12-18 00:00:30",432302,4.271,335.4,5.525,1.027,-1.43,97.74109,-6.453,-5.393,71.89,0,109.1,13.75,-5.72,297.4
"2010-12-18 00:01:00",432303,3.747,332.9,6.397,1.166,-2.584,97.74364,-6.447,-5.427,71.86,0,109.1,13.75,-5.72,294.9
"2010-12-18 00:01:30",432304,4.175,338.2,5.629,1.015,-1.103,97.7493,-6.432,-5.383,71.91,0,109.1,13.76,-5.70,300.2
"2010-12-18 00:02:00",432305,4.017,336.6,5.708,1.153,-1.604,97.74846,-6.435,-5.316,71.95,0,109.1,13.76,-5.71,298.6
"2010-12-18 00:02:30",432306,4.433,338.7,5.147,0.914,-1.244,97.75211,-6.425,-5.309,72.02,0,109.1,13.76,-5.70,300.7
"2010-12-18 00:03:00",432307,4.153,337.4,6.261,1.128,-1.781,97.75267,-6.424,-5.314,71.98,0,109.1,13.76,-5.69,299.4
"2010-12-18 00:03:30",432308,4.345,335.1,5.576,1.077,-1.898,97.75404,-6.42,-5.351,71.96,0,109.1,13.76,-5.69,297.1
"2010-12-18 00:04:00",432309,4.593,331.5,5.645,1.115,-1.881,97.75284,-6.423,-5.382,72,0,109.1,13.76,-5.69,293.5
"2010-12-18 00:04:30",432310,4.376,328.7,6.02,1.152,-1.988,97.74597,-6.441,-5.336,72.14,0,109.1,13.76,-5.71,290.7
"2010-12-18 00:05:00",432311,5.261,331.7,3.841,0.507,-0.421,97.73886,-6.459,-5.321,72.22,0,109.1,13.76,-5.73,293.7
"2010-12-18 00:05:30",432312,5.16,331.3,4.072,0.495,-0.235,97.74413,-6.446,-5.285,72.31,0,109.1,13.76,-5.72,293.3
"2010-12-18 00:06:00",432313,4.155,330.2,5.255,1.11,-1.625,97.74299,-6.448,-5.297,72.3,0,109.1,13.76,-5.72,292.2
"2010-12-18 00:06:30",432314,4.05,332.1,5.486,1.135,-2.047,97.74156,-6.452,-5.357,72.25,0,109.1,13.76,-5.72,294.1
"2010-12-18 00:07:00",432315,3.239,333.2,4.876,1.168,-3.029,97.74599,-6.441,-5.486,72.1,0,109.1,13.76,-5.71,295.2
"2010-12-18 00:07:30",432316,3.762,340.7,6.04,1.123,-1.695,97.7474,-6.437,-5.382,72.22,0,109.1,13.76,-5.71,302.7
"2010-12-18 00:08:00",432317,3.735,344.7,5.496,1.109,-1.259,97.74596,-6.441,-5.364,72.27,0,109.1,13.76,-5.71,306.7
"2010-12-18 00:08:30",432318,4.409,349.1,4.686,0.539,-0.467,97.74255,-6.45,-5.291,72.44,0,109.1,13.76,-5.72,311.1
"2010-12-18 00:09:00",432319,4.56,350.8,3.83,0.625,-0.57,97.7431,-6.448,-5.327,72.43,0,109.1,13.76,-5.72,312.8
"2010-12-18 00:09:30",432320,3.961,348.4,5.56,1.079,-2.209,97.74422,-6.445,-5.35,72.47,0,109.1,13.76,-5.72,310.4
"2010-12-18 00:10:00",432321,3.486,345.5,5.538,1.142,-3.28,97.74449,-6.445,-5.542,72.37,0,109.1,13.76,-5.72,307.5
"2010-12-18 00:10:30",432322,4.125,347.4,5.855,1.122,-1.951,97.74449,-6.445,-5.352,72.64,0,109.1,13.76,-5.72,309.4
"2010-12-18 00:11:00",432323,4.284,348.7,5.019,1.068,-1.31,97.74107,-6.453,-5.345,72.7,0,109.1,13.76,-5.72,310.7
"2010-12-18 00:11:30",432324,4.706,350.2,3.349,0.648,-0.485,97.73739,-6.463,-5.3,72.73,0,109.1,13.76,-5.73,312.2
"2010-12-18 00:12:00",432325,4.517,350.1,3.37,0.832,-0.919,97.73397,-6.471,-5.329,72.74,0,109.1,13.76,-5.74,312.1
"2010-12-18 00:12:30",432326,4.136,348.3,5.386,1.053,-1.739,97.73537,-6.468,-5.401,72.66,0,109.1,13.76,-5.74,310.3
"2010-12-18 00:13:00",432327,2.682,341.8,4.833,0.914,-4.295,97.73988,-6.456,-5.519,72.52,0,109.1,13.76,-5.73,303.8
"2010-12-18 00:13:30",432328,3.922,349.6,4.755,1.076,-2.09,97.74583,-6.441,-5.464,72.51,0,109.1,13.75,-5.71,311.6
"2010-12-18 00:14:00",432329,3.871,349.5,5.674,1.012,-1.774,97.74558,-6.442,-5.39,72.52,0,109.1,13.76,-5.71,311.5
"2010-12-18 00:14:30",432330,3.893,346.8,5.085,0.969,-1.323,97.74781,-6.436,-5.324,72.47,0,109.1,13.76,-5.71,308.8
"2010-12-18 00:15:00",432331,3.754,347.9,4.714,1.03,-1.231,97.74865,-6.434,-5.321,72.37,0,109.1,13.76,-5.70,309.9
"2010-12-18 00:15:30",432332,3.653,345.1,6.139,1.094,-2.185,97.75031,-6.43,-5.399,72.21,0,109.1,13.76,-5.70,307.1
"2010-12-18 00:16:00",432333,3.071,341,6.09,1.152,-3.442,97.75283,-6.423,-5.449,72.09,0,109.1,13.76,-5.69,303.0
"2010-12-18 00:16:30",432334,3.261,341,6.257,1.167,-3.376,97.7537,-6.421,-5.361,72.25,0,109.1,13.76,-5.69,303.0
"2010-12-18 00:17:00",432335,3.875,344.6,5.454,1.061,-1.44,97.75538,-6.417,-5.35,72.23,0,109.1,13.76,-5.69,306.6
"2010-12-18 00:17:30",432336,3.771,344.7,5.94,1.043,-1.91,97.75453,-6.419,-5.328,72.25,0,109.1,13.76,-5.69,306.7
"2010-12-18 00:18:00",432337,3.823,345,5.44,1.06,-1.368,97.7568,-6.413,-5.283,72.25,0,109.1,13.76,-5.68,307.0
"2010-12-18 00:18:30",432338,3.71,343.6,5.795,1.071,-2.49,97.75394,-6.421,-5.376,72.25,0,109.1,13.77,-5.69,305.6
"2010-12-18 00:19:00",432339,3.324,342.2,5.934,1.183,-2.864,97.75253,-6.424,-5.409,72.25,0,109.1,13.77,-5.69,304.2
"2010-12-18 00:19:30",432340,3.498,343.9,6.251,1.176,-2.362,97.75281,-6.423,-5.365,72.38,0,109.1,13.76,-5.69,305.9
"2010-12-18 00:20:00",432341,4.059,346,5.682,1.073,-1.666,97.75281,-6.423,-5.393,72.42,0,109.1,13.77,-5.69,308.0
"2010-12-18 00:20:30",432342,3.955,343.5,5.849,1.124,-2.226,97.75281,-6.423,-5.406,72.47,0,109.1,13.77,-5.69,305.5
"2010-12-18 00:21:00",432343,4.511,344.6,4.768,0.81,-1.297,97.75197,-6.426,-5.3,72.64,0,109.1,13.77,-5.70,306.6
"2010-12-18 00:21:30",432344,4.263,342.6,5.685,1.062,-1.45,97.75253,-6.424,-5.349,72.66,0,109.1,13.77,-5.69,304.6
"2010-12-18 00:22:00",432345,4.296,342.7,5.656,1.032,-1.773,97.75167,-6.426,-5.341,72.67,0,109.1,13.77,-5.70,304.7
"2010-12-18 00:22:30",432346,4.163,340.4,5.717,1.122,-2.055,97.74911,-6.433,-5.336,72.73,0,109.1,13.77,-5.70,302.4
"2010-12-18 00:23:00",432347,4.267,339.3,6.108,1.036,-1.994,97.74543,-6.442,-5.412,72.68,0,109.1,13.77,-5.71,301.3
"2010-12-18 00:23:30",432348,3.543,337.9,6.229,1.132,-2.457,97.74486,-6.444,-5.447,72.64,0,109.1,13.77,-5.71,299.9
"2010-12-18 00:24:00",432349,4.43,343.7,4.734,0.899,-0.991,97.74117,-6.453,-5.318,72.77,0,109.1,13.77,-5.72,305.7
"2010-12-18 00:24:30",432350,4.304,344.5,4.688,0.967,-1.555,97.74117,-6.453,-5.365,72.73,0,109.1,13.77,-5.72,306.5
"2010-12-18 00:25:00",432351,4.395,346.2,4.034,0.839,-1.031,97.74117,-6.453,-5.339,72.72,0,109.1,13.77,-5.72,308.2
"2010-12-18 00:25:30",432352,3.614,343.5,6.173,1.167,-2.374,97.74883,-6.434,-5.396,72.66,0,109.1,13.77,-5.70,305.5
"2010-12-18 00:26:00",432353,4.065,348.2,4.992,1.005,-1.833,97.74968,-6.431,-5.414,72.56,0,109.1,13.77,-5.70,310.2
"2010-12-18 00:26:30",432354,3.058,342,5.115,1.023,-3.625,97.75253,-6.424,-5.508,72.41,0,109.1,13.77,-5.69,304.0
"2010-12-18 00:27:00",432355,4.331,347.5,4.891,0.832,-1.278,97.75281,-6.423,-5.326,72.58,0,109.1,13.77,-5.69,309.5
"2010-12-18 00:27:30",432356,4.131,347,5.615,0.966,-1.067,97.75281,-6.423,-5.315,72.52,0,109.1,13.77,-5.69,309.0
"2010-12-18 00:28:00",432357,3.758,347.6,5.413,1.141,-1.711,97.75281,-6.423,-5.287,72.48,0,109.1,13.77,-5.69,309.6
"2010-12-18 00:28:30",432358,3.412,347.2,5.695,1.17,-2.516,97.75281,-6.423,-5.411,72.3,0,109.1,13.76,-5.69,309.2
"2010-12-18 00:29:00",432359,2.638,343.6,5.345,0.998,-3.632,97.75281,-6.423,-5.364,72.25,0,109.1,13.76,-5.69,305.6
"2010-12-18 00:29:30",432360,3.156,345.6,5.931,1.182,-3.252,97.75281,-6.423,-5.478,72.09,0,109.1,13.76,-5.69,307.6
"2010-12-18 00:30:00",432361,4.163,351.7,4.22,0.643,-0.479,97.75281,-6.423,-5.29,72.23,0,109.1,13.76,-5.69,313.7
"2010-12-18 00:30:30",432362,4.314,350.2,3.525,0.636,-0.756,97.75281,-6.423,-5.236,72.22,0,109.1,13.76,-5.69,312.2
"2010-12-18 00:31:00",432363,4.015,346.3,5.551,0.998,-1.358,97.75308,-6.423,-5.32,72.22,0,109.1,13.76,-5.69,308.3
"2010-12-18 00:31:30",432364,4.096,344.9,5.951,1.029,-1.55,97.75281,-6.423,-5.379,72.18,0,109.1,13.76,-5.69,306.9
"2010-12-18 00:32:00",432365,3.561,342.3,5.797,1.155,-3.068,97.75281,-6.423,-5.407,72.18,0,109.1,13.76,-5.69,304.3
"2010-12-18 00:32:30",432366,3.077,339.1,5.148,1.068,-3.694,97.75281,-6.423,-5.394,72.2,0,109.1,13.76,-5.69,301.1
"2010-12-18 00:33:00",432367,4.387,345.4,4.7,0.912,-1.051,97.75281,-6.423,-5.308,72.3,0,109.1,13.77,-5.69,307.4
"2010-12-18 00:33:30",432368,4.736,346.3,3.622,0.483,-0.257,97.75281,-6.423,-5.237,72.36,0,109.1,13.77,-5.69,308.3
"2010-12-18 00:34:00",432369,4.673,346.6,3.278,0.547,-0.616,97.75281,-6.423,-5.315,72.34,0,109.1,13.77,-5.69,308.6
"2010-12-18 00:34:30",432370,3.889,343.3,6.118,1.178,-2.379,97.75281,-6.423,-5.32,72.31,0,109.2,13.77,-5.69,305.3
"2010-12-18 00:35:00",432371,3.277,341,4.762,1.027,-4.329,97.75281,-6.423,-5.507,72.16,0,109.1,13.77,-5.69,303.0
"2010-12-18 00:35:30",432372,4.231,349.1,5.354,1.122,-1.398,97.75281,-6.423,-5.34,72.33,0,109.1,13.77,-5.69,311.1
"2010-12-18 00:36:00",432373,4.364,351.4,4.955,1.057,-1.081,97.75281,-6.423,-5.275,72.37,0,109.1,13.77,-5.69,313.4
"2010-12-18 00:36:30",432374,4.763,354,3.456,0.617,-0.368,97.75281,-6.423,-5.246,72.38,0,109.1,13.77,-5.69,316.0
"2010-12-18 00:37:00",432375,4.447,355.5,4.55,0.838,-0.442,97.75281,-6.423,-5.236,72.39,0,109.1,13.77,-5.69,317.5
"2010-12-18 00:37:30",432376,3.783,356.9,5.681,1.184,-1.985,97.75281,-6.423,-5.354,72.17,0,109.1,13.77,-5.69,318.9
"2010-12-18 00:38:00",432377,2.458,352.9,4.812,1.036,-3.859,97.75281,-6.423,-5.425,72,0,109.1,13.77,-5.69,314.9
"2010-12-18 00:38:30",432378,2.567,357.6,7.852,0.989,-2.891,97.75281,-6.423,-5.373,71.96,0,109.1,13.77,-5.69,319.6
"2010-12-18 00:39:00",432379,2.824,2.163,6.818,1.011,-1.69,97.75281,-6.423,-5.352,71.87,0,109.1,13.77,-5.69,324.2
"2010-12-18 00:39:30",432380,2.533,6.512,6.752,1.118,-1.246,97.75281,-6.423,-5.26,71.93,0,109.1,13.77,-5.69,328.5
"2010-12-18 00:40:00",432381,2.691,6.832,6.724,1.043,-1.279,97.75281,-6.423,-5.297,71.95,0,109.1,13.77,-5.69,328.8
"2010-12-18 00:40:30",432382,2.328,1.877,6.64,1.139,-2.435,97.75281,-6.423,-5.349,71.88,0,109.1,13.77,-5.69,323.9
"2010-12-18 00:41:00",432383,1.666,353.6,4.661,0.78,-5.086,97.75281,-6.423,-5.533,71.66,0,109.1,13.77,-5.69,315.6
"2010-12-18 00:41:30",432384,1.905,352.1,4.969,0.646,-4.751,97.75281,-6.423,-5.439,71.74,0,109.1,13.77,-5.69,314.1
"2010-12-18 00:42:00",432385,3.936,0.617,3.913,0.813,-0.778,97.75281,-6.423,-5.314,71.81,0,109.1,13.78,-5.69,322.6
"2010-12-18 00:42:30",432386,4.129,358.7,3.363,0.827,-0.198,97.75365,-6.421,-5.23,71.96,0,109.1,13.78,-5.69,320.7
"2010-12-18 00:43:00",432387,4.286,357.6,3.1,0.747,-0.226,97.75479,-6.418,-5.218,72,0,109.1,13.78,-5.69,319.6
"2010-12-18 00:43:30",432388,3.581,354.1,5.884,1.189,-2.173,97.75365,-6.421,-5.31,71.94,0,109.1,13.77,-5.69,316.1
"2010-12-18 00:44:00",432389,3.348,353.3,5.513,1.183,-3.071,97.75281,-6.423,-5.405,71.87,0,109.1,13.77,-5.69,315.3
"2010-12-18 00:44:30",432390,2.191,354,7.009,0.713,-3.909,97.75281,-6.423,-5.382,71.88,0,109.1,13.78,-5.69,316.0
"2010-12-18 00:45:00",432391,2.943,1.92,5.875,1.25,-1.971,97.75281,-6.423,-5.407,71.76,0,109.1,13.77,-5.69,323.9
"2010-12-18 00:45:30",432392,2.857,7,6.275,1.13,-0.828,97.75281,-6.423,-5.253,71.91,0,109.1,13.77,-5.69,329.0
"2010-12-18 00:46:00",432393,2.895,10.97,6.868,0.873,-0.714,97.75281,-6.423,-5.285,71.9,0,109.1,13.77,-5.69,333.0
"2010-12-18 00:46:30",432394,1.938,7.402,8.88,1.169,-2.689,97.75308,-6.423,-5.323,71.91,0,109.1,13.77,-5.69,329.4
"2010-12-18 00:47:00",432395,1.015,358.8,3.641,0.154,-5.434,97.74911,-6.433,-5.522,71.8,0,109.1,13.81,-5.70,320.8
"2010-12-18 00:47:30",432396,1.424,359.4,5.074,0.922,-4.994,97.73294,-6.474,-5.546,71.87,0,109.1,13.77,-5.74,321.4
"2010-12-18 00:48:00",432397,2.127,1.54,6.774,1.21,-2.964,97.72641,-6.491,-5.42,72.1,0,109.1,13.77,-5.76,323.5
"2010-12-18 00:48:30",432398,2.843,4.517,6.573,1.073,-1.333,97.72556,-6.493,-5.307,72.32,0,109.1,13.77,-5.76,326.5
"2010-12-18 00:49:00",432399,3.633,4.63,5.533,0.685,-0.08,97.72329,-6.499,-5.275,72.35,0,109.1,13.77,-5.77,326.6
"2010-12-18 00:49:30",432400,3.465,359.2,6.313,1.025,-1.3,97.72556,-6.493,-5.33,72.29,0,109.1,13.77,-5.76,321.2
"2010-12-18 00:50:00",432401,3.066,354.2,6.483,1.191,-2.932,97.74371,-6.447,-5.463,72.06,0,109.1,13.78,-5.72,316.2
"2010-12-18 00:50:30",432402,1.91,348,2.158,0.232,-4.855,97.75307,-6.423,-5.461,71.99,0,109.1,13.78,-5.69,310.0
"2010-12-18 00:51:00",432403,2.784,354.3,5.225,1.332,-2.906,97.75391,-6.421,-5.513,71.87,0,109.1,13.78,-5.69,316.3
"2010-12-18 00:51:30",432404,2.935,0.43,6.329,1.08,-1.492,97.75447,-6.419,-5.275,72.05,0,109.1,13.79,-5.69,322.4
"2010-12-18 00:52:00",432405,3.465,3.523,4.331,0.665,-0.189,97.75364,-6.421,-5.259,72.03,0,109.1,13.79,-5.69,325.5
"2010-12-18 00:52:30",432406,3.469,3.15,3.964,0.7,-0.573,97.75475,-6.419,-5.273,71.98,0,109.1,13.78,-5.69,325.1
"2010-12-18 00:53:00",432407,1.629,354.2,4.873,0.806,-4.753,97.75447,-6.419,-5.486,71.76,0,109.1,13.78,-5.69,316.2
"2010-12-18 00:53:30",432408,1.9,356.7,5.551,1.142,-4.222,97.75419,-6.42,-5.516,71.79,0,109.1,13.78,-5.69,318.7
"2010-12-18 00:54:00",432409,2.071,5.223,6.344,1.185,-2.899,97.75304,-6.423,-5.439,71.85,0,109.1,13.79,-5.69,327.2
"2010-12-18 00:54:30",432410,2.248,9.72,7.158,1.23,-2.635,97.7329,-6.474,-5.42,71.94,0,109.1,13.79,-5.74,331.7
"2010-12-18 00:55:00",432411,3.183,18.98,4.6,0.649,-0.382,97.72298,-6.499,-5.272,72.14,0,109.1,13.79,-5.77,341.0
"2010-12-18 00:55:30",432412,2.993,25.54,4.895,0.806,-1.21,97.72153,-6.503,-5.295,72.15,0,109.1,13.79,-5.77,347.5
"2010-12-18 00:56:00",432413,1.12,19.11,1.73,0.086,-5.489,97.71986,-6.507,-5.598,71.97,0,109.1,13.82,-5.78,341.1
"2010-12-18 00:56:30",432414,2.117,25.26,5.789,1.17,-4.254,97.72208,-6.502,-5.59,72.04,0,109.1,13.79,-5.77,347.3
"2010-12-18 00:57:00",432415,2.195,29.03,6.472,1.158,-3.281,97.71985,-6.507,-5.464,72.24,0,109.1,13.79,-5.78,351.0
"2010-12-18 00:57:30",432416,2.702,34.52,5.89,1.181,-2.201,97.72097,-6.504,-5.46,72.26,0,109.1,13.79,-5.78,356.5
"2010-12-18 00:58:00",432417,2.827,34.39,6.7,1.118,-1.73,97.72153,-6.503,-5.362,72.35,0,109.1,13.79,-5.77,356.4
"2010-12-18 00:58:30",432418,3.29,34.46,4.595,0.838,-1.147,97.72347,-6.498,-5.342,72.35,0,109.1,13.79,-5.77,356.5
"2010-12-18 00:59:00",432419,1.684,29.33,5.729,1.06,-4.428,97.7218,-6.502,-5.597,72.15,0,109.1,13.79,-5.77,351.3
"2010-12-18 00:59:30",432420,1.636,27.52,6.093,1.015,-3.889,97.72292,-6.5,-5.462,72.35,0,109.1,13.79,-5.77,349.5
"2010-12-18 01:00:00",432421,1.668,22.37,6.654,0.911,-4.199,97.7246,-6.495,-5.572,72.21,0,109.1,13.79,-5.77,344.4
"2010-12-18 01:00:30",432422,2.607,27.06,6.542,1.183,-1.537,97.73108,-6.479,-5.349,72.35,0,109.1,13.79,-5.75,349.1
"2010-12-18 01:01:00",432423,2.719,30.8,6.39,1.216,-1.355,97.73448,-6.47,-5.359,72.29,0,109.1,13.79,-5.74,352.8
"2010-12-18 01:01:30",432424,3.053,32.52,7.164,1.158,-1.359,97.74326,-6.448,-5.342,72.23,0,109.1,13.79,-5.72,354.5
"2010-12-18 01:02:00",432425,2.282,37.19,8.01,1.198,-3.167,97.75744,-6.412,-5.416,72.11,0,109.1,13.79,-5.68,359.2
"2010-12-18 01:02:30",432426,2.12,38.52,6.518,1.115,-3.933,97.76418,-6.395,-5.448,72.01,0,109.1,13.78,-5.67,0.5
"2010-12-18 01:03:00",432427,2.83,43.27,5.718,1.159,-2.362,97.76925,-6.382,-5.389,71.92,0,109.1,13.78,-5.65,5.3
"2010-12-18 01:03:30",432428,3.551,49.9,4.612,0.932,-0.722,97.78935,-6.33,-5.233,71.93,0,109.1,13.79,-5.60,11.9
"2010-12-18 01:04:00",432429,3.206,47.27,7.258,1.103,-1.42,97.80156,-6.299,-5.331,71.71,0,109.1,13.78,-5.57,9.3
"2010-12-18 01:04:30",432430,3.093,45.11,6.813,1.123,-2.089,97.80434,-6.292,-5.323,71.53,0,109.1,13.78,-5.56,7.1
"2010-12-18 01:05:00",432431,1.931,34.81,4.419,0.972,-3.087,97.80267,-6.297,-5.326,71.47,0,109.1,13.78,-5.57,356.8
"2010-12-18 01:05:30",432432,2.287,32.4,6.97,1.155,-2.401,97.80378,-6.294,-5.359,71.41,0,109.1,13.78,-5.56,354.4
"2010-12-18 01:06:00",432433,1.597,29.26,4.891,1.051,-3.315,97.80656,-6.287,-5.314,71.46,0,109.1,13.79,-5.56,351.3
"2010-12-18 01:06:30",432434,3.418,32.67,5.93,0.681,-0.278,97.80683,-6.286,-5.161,71.59,0,109.1,13.79,-5.56,354.7
"2010-12-18 01:07:00",432435,2.791,33.71,6.327,1.049,-1.817,97.80624,-6.287,-5.298,71.46,0,109.1,13.79,-5.56,355.7
"2010-12-18 01:07:30",432436,2.2,31.71,7.382,1.175,-2.774,97.80003,-6.303,-5.203,71.59,0,109.1,13.79,-5.57,353.7
"2010-12-18 01:08:00",432437,2.27,26.13,8.98,1.193,-3.631,97.79006,-6.329,-5.453,71.34,0,109.1,13.79,-5.60,348.1
"2010-12-18 01:08:30",432438,2.684,32.49,8.19,1.15,-2.651,97.78435,-6.343,-5.231,71.56,0,109.1,13.79,-5.61,354.5
"2010-12-18 01:09:00",432439,3.087,34.96,5.167,1.002,-1.429,97.7849,-6.342,-5.322,71.51,0,109.1,13.79,-5.61,357.0
"2010-12-18 01:09:30",432440,2.726,36.87,6.431,1.13,-1.371,97.78518,-6.341,-5.191,71.66,0,109.1,13.79,-5.61,358.9
"2010-12-18 01:10:00",432441,2.631,27.41,12.74,1.136,-1.176,97.78206,-6.349,-5.267,71.58,0,109.1,13.79,-5.62,349.4
"2010-12-18 01:10:30",432442,1.205,21.95,6.135,0.743,-4.905,97.77779,-6.36,-5.445,71.39,0,109.1,13.79,-5.63,344.0
"2010-12-18 01:11:00",432443,1.556,16.19,12.78,1.149,-3.929,97.7775,-6.361,-5.496,71.37,0,109.1,13.79,-5.63,338.2
"2010-12-18 01:11:30",432444,2.253,24.92,8.94,1.149,-2.156,97.77555,-6.366,-5.268,71.59,0,109.1,13.8,-5.64,346.9
"2010-12-18 01:12:00",432445,1.201,20.13,6.72,0.881,-3.473,97.77695,-6.362,-5.328,71.59,0,109.1,13.8,-5.63,342.1
"2010-12-18 01:12:30",432446,2.979,34.21,6.318,0.951,-0.986,97.77467,-6.368,-5.248,71.76,0,109.1,13.8,-5.64,356.2
"2010-12-18 01:13:00",432447,2.53,28.23,8.94,1.213,-1.562,97.77097,-6.377,-5.285,71.73,0,109.1,13.8,-5.65,350.2
"2010-12-18 01:13:30",432448,1.584,24.83,6.509,1.022,-4.218,97.75791,-6.41,-5.471,71.55,0,109.1,13.8,-5.68,346.8
"2010-12-18 01:14:00",432449,2.051,36.27,11.01,1.333,-3.648,97.75536,-6.417,-5.452,71.6,0,109.1,13.8,-5.69,358.3
"2010-12-18 01:14:30",432450,2.242,36.42,5.627,1.159,-3.59,97.76557,-6.391,-5.372,71.72,0,109.1,13.8,-5.66,358.4
"2010-12-18 01:15:00",432451,2.79,36.77,5.507,0.947,-1.349,97.77522,-6.366,-5.323,71.75,0,109.1,13.8,-5.64,358.8
"2010-12-18 01:15:30",432452,3.105,27.26,10.15,0.524,-0.183,97.76302,-6.397,-5.248,71.84,0,109.1,13.8,-5.67,349.3
"2010-12-18 01:16:00",432453,2.881,32.4,5.131,0.966,-1.335,97.74684,-6.439,-5.314,71.82,0,109.1,13.8,-5.71,354.4
"2010-12-18 01:16:30",432454,1.232,22.38,4.7,0.643,-5.071,97.74427,-6.445,-5.554,71.67,0,109.1,13.8,-5.72,344.4
"2010-12-18 01:17:00",432455,1.122,20.68,2.64,0.107,-5.626,97.74483,-6.444,-5.573,71.75,0,109.1,13.83,-5.71,342.7
"2010-12-18 01:17:30",432456,2.304,28.05,7.852,1.107,-3.066,97.73318,-6.473,-5.412,72,0,109.1,13.8,-5.74,350.0
"2010-12-18 01:18:00",432457,2.963,37.42,6.789,1.193,-1.604,97.7159,-6.517,-5.344,72.18,0,109.1,13.8,-5.79,359.4
"2010-12-18 01:18:30",432458,3.683,45.72,6.3,0.561,-0.408,97.71275,-6.525,-5.318,72.28,0,109.1,13.8,-5.80,7.7
"2010-12-18 01:19:00",432459,3.338,48.63,6.779,1.041,-1.484,97.72183,-6.502,-5.393,72.28,0,109.1,13.79,-5.77,10.6
"2010-12-18 01:19:30",432460,2.346,40.87,9.24,1.33,-3.331,97.74507,-6.443,-5.489,72.13,0,109.1,13.79,-5.71,2.9
"2010-12-18 01:20:00",432461,1.874,43.95,5.57,0.707,-4.463,97.74732,-6.437,-5.461,72.13,0,109.1,13.79,-5.71,6.0
"2010-12-18 01:20:30",432462,3.15,48.9,6.737,1.173,-2.179,97.74677,-6.439,-5.441,72.09,0,109.1,13.79,-5.71,10.9
"2010-12-18 01:21:00",432463,3.265,40.51,5.8,0.761,-0.746,97.74538,-6.442,-5.373,72.13,0,109.1,13.79,-5.71,2.5
"2010-12-18 01:21:30",432464,3.391,35.05,4.561,0.707,-0.041,97.74566,-6.442,-5.271,72.18,0,109.1,13.79,-5.71,357.0
"2010-12-18 01:22:00",432465,3.063,35.23,4.403,0.963,-1.182,97.74788,-6.436,-5.353,72.14,0,109.1,13.79,-5.71,357.2
"2010-12-18 01:22:30",432466,2.09,31.12,7.573,1.103,-3.853,97.74871,-6.434,-5.491,72,0,109.1,13.79,-5.70,353.1
"2010-12-18 01:23:00",432467,1.925,32.48,8.47,1.043,-4.763,97.73849,-6.46,-5.597,71.92,0,109.1,13.8,-5.73,354.5
"2010-12-18 01:23:30",432468,2.941,46.07,11.12,1.424,-2.961,97.7402,-6.456,-5.477,72.02,0,109.1,13.8,-5.73,8.1
"2010-12-18 01:24:00",432469,3.232,64.41,18.61,1.049,-0.895,97.75065,-6.429,-5.343,71.67,0,109.1,13.8,-5.70,26.4
"2010-12-18 01:24:30",432470,4.051,79.91,8.63,0.462,0.468,97.75098,-6.428,-5.284,71.13,0,109.1,13.8,-5.70,41.9
"2010-12-18 01:25:00",432471,4.054,75.63,8.91,0.795,-0.294,97.76399,-6.395,-5.268,71.1,0,109.1,13.8,-5.67,37.6
"2010-12-18 01:25:30",432472,3.305,52.14,5.893,0.976,-2.649,97.78413,-6.344,-5.415,70.77,0,109.1,13.8,-5.61,14.1
"2010-12-18 01:26:00",432473,3.32,56.28,6.024,1.174,-2.927,97.78499,-6.342,-5.488,70.47,0,109.1,13.8,-5.61,18.3
"2010-12-18 01:26:30",432474,3.467,40.53,5.478,1.085,-2.074,97.78555,-6.34,-5.347,70.46,0,109.1,13.8,-5.61,2.5
"2010-12-18 01:27:00",432475,4.093,53.71,5.497,1.19,-0.734,97.78526,-6.341,-5.206,70.61,0,109.1,13.8,-5.61,15.7
"2010-12-18 01:27:30",432476,4.606,54.83,4.525,0.672,0.493,97.78305,-6.347,-5.212,70.65,0,109.1,13.8,-5.62,16.8
"2010-12-18 01:28:00",432477,3.905,58.63,4.088,0.844,-0.093,97.78443,-6.343,-5.202,70.68,0,109.1,13.8,-5.61,20.6
"2010-12-18 01:28:30",432478,2.387,62.5,6.724,1.154,-2.478,97.7861,-6.339,-5.398,70.51,0,109.1,13.8,-5.61,24.5
"2010-12-18 01:29:00",432479,1.42,58.98,4.39,0.199,-4.596,97.78471,-6.342,-5.399,70.52,0,109.1,13.83,-5.61,21.0
"2010-12-18 01:29:30",432480,2.658,55.94,7.418,1.039,-3.441,97.78555,-6.34,-5.467,70.41,0,109.1,13.8,-5.61,17.9
"2010-12-18 01:30:00",432481,3.344,63.31,9.7,1.173,-1.595,97.78443,-6.343,-5.295,70.53,0,109,13.8,-5.61,25.3
"2010-12-18 01:30:30",432482,4.277,66.36,8.57,0.792,-0.063,97.78499,-6.342,-5.212,70.57,0,109.1,13.8,-5.61,28.4
"2010-12-18 01:31:00",432483,4.752,54.24,3.681,0.756,-0.091,97.78443,-6.343,-5.216,70.73,0,109.1,13.8,-5.61,16.2
"2010-12-18 01:31:30",432484,3.509,38.61,6.756,1.097,-0.598,97.7813,-6.351,-5.259,70.82,0,109.1,13.8,-5.62,0.6
"2010-12-18 01:32:00",432485,2.801,39.89,7.757,1.173,-2.83,97.76199,-6.4,-5.393,70.85,0,109.1,13.8,-5.67,1.9
"2010-12-18 01:32:30",432486,1.875,38.59,4.371,0.307,-4.841,97.75971,-6.406,-5.412,70.83,0,109.1,13.8,-5.68,0.6
"2010-12-18 01:33:00",432487,3.445,48.86,6.266,1.099,-2.33,97.76226,-6.399,-5.424,70.8,0,109.1,13.8,-5.67,10.9
"2010-12-18 01:33:30",432488,3.581,46.96,7.833,0.983,-0.685,97.76228,-6.399,-5.26,70.95,0,109.1,13.8,-5.67,9.0
"2010-12-18 01:34:00",432489,3.726,49.34,8.07,0.823,-0.444,97.75915,-6.407,-5.25,70.95,0,109.1,13.8,-5.68,11.3
"2010-12-18 01:34:30",432490,3.868,59.8,6.387,0.919,-0.751,97.76853,-6.383,-5.272,70.71,0,109.1,13.79,-5.65,21.8
"2010-12-18 01:35:00",432491,3.169,51.16,7.357,1.167,-2.669,97.78215,-6.349,-5.454,70.45,0,109.1,13.79,-5.62,13.2
"2010-12-18 01:35:30",432492,2.706,65.81,5.127,1.311,-3.016,97.78468,-6.342,-5.363,70.4,0,109.1,13.79,-5.61,27.8
"2010-12-18 01:36:00",432493,2.296,47.55,3.945,0.77,-4.633,97.7861,-6.339,-5.472,70.14,0,109.1,13.79,-5.61,9.5
"2010-12-18 01:36:30",432494,4.146,63.28,6.197,0.76,-0.253,97.78581,-6.339,-5.228,70.34,0,109.1,13.79,-5.61,25.3
"2010-12-18 01:37:00",432495,4.357,56.29,4.377,0.766,-0.005,97.78497,-6.342,-5.227,70.32,0,109.1,13.79,-5.61,18.3
"2010-12-18 01:37:30",432496,3.891,48.53,9.99,0.845,-0.589,97.77731,-6.361,-5.233,70.31,0,109.1,13.79,-5.63,10.5
"2010-12-18 01:38:00",432497,2.598,24.8,9.62,1.191,-3.596,97.75488,-6.418,-5.457,70.26,0,109.1,13.79,-5.69,346.8
"2010-12-18 01:38:30",432498,2.383,22.24,6.858,1.148,-2.947,97.7509,-6.428,-5.397,70.57,0,109.1,13.79,-5.70,344.2
"2010-12-18 01:39:00",432499,0.264,3.776,12.29,0.18,-5.034,97.72195,-6.502,-5.577,70.82,0,109.1,13.82,-5.77,325.8
"2010-12-18 01:39:30",432500,1.61,10.11,10.29,1.274,-2.788,97.71004,-6.532,-5.445,71.22,0,109.1,13.8,-5.80,332.1
"2010-12-18 01:40:00",432501,2.959,10.84,5.897,1.2,-1.289,97.68449,-6.597,-5.36,71.49,0,109.1,13.8,-5.87,332.8
"2010-12-18 01:40:30",432502,3.769,20.32,5.056,0.897,-1.148,97.67398,-6.624,-5.412,71.68,0,109.1,13.8,-5.90,342.3
"2010-12-18 01:41:00",432503,2.689,22.71,7.305,1.12,-3.512,97.6544,-6.674,-5.543,71.88,0,109.1,13.8,-5.95,344.7
"2010-12-18 01:41:30",432504,3.01,31.07,5.456,1.165,-3.298,97.64958,-6.686,-5.594,72.12,0,109.1,13.8,-5.96,353.1
"2010-12-18 01:42:00",432505,2.295,30.69,5.867,0.92,-4.496,97.64958,-6.686,-5.592,72.22,0,109.1,13.8,-5.96,352.7
"2010-12-18 01:42:30",432506,3.557,48.54,5.838,0.98,-1.904,97.65526,-6.672,-5.527,72.14,0,109.1,13.8,-5.94,10.5
"2010-12-18 01:43:00",432507,3.112,45.13,6.028,1.087,-1.558,97.67484,-6.622,-5.587,72,0,109.1,13.8,-5.89,7.1
"2010-12-18 01:43:30",432508,2.964,41.66,4.408,1.024,-2.444,97.68392,-6.599,-5.638,71.78,0,109.1,13.8,-5.87,3.7
"2010-12-18 01:44:00",432509,2.131,32.25,6.421,1.014,-3.456,97.68364,-6.599,-5.545,71.81,0,109.1,13.8,-5.87,354.2
"2010-12-18 01:44:30",432510,3.159,34.63,7.824,1.078,-1.739,97.68392,-6.599,-5.508,71.91,0,109.1,13.8,-5.87,356.6
"2010-12-18 01:45:00",432511,2.902,39.32,7.45,1.23,-2.501,97.68364,-6.599,-5.633,71.91,0,109.1,13.8,-5.87,1.3